GW4192 Weather Reports


time (UTC)temp
F
wind
direction
speed
knots
gust
knots
rain 1hr
in
rain 24hr
in
rain mn
in
humidity
%
barometer
mb
20260507081534 29 245 13.0 18.2 0.00 0.81 0.01 99 1002.5
20260507080033 29 245 13.9 20.0 0.00 0.81 0.01 99 1001.6
20260507074542 30 298 14.8 22.6 0.00 0.83 0.01 99 1001.6
20260507073033 30 335 13.0 18.2 0.00 0.83 0.01 99 1001.2
20260507071532 30 245 13.0 20.9 0.00 0.83 0.01 99 1002.1
20260507070034 31 293 15.6 21.7 0.00 0.83 0.01 99 1001.0
20260507064536 31 245 14.8 25.2 0.00 0.84 0.01 99 1001.5
20260507063035 31 245 14.8 23.5 0.00 0.84 0.01 99 1001.1
20260507061530 31 298 17.4 29.5 0.00 0.84 0.01 99 1001.5
20260507060031 32 245 16.5 26.1 0.00 0.84 0.01 99 1001.5
20260507054533 32 245 18.2 24.3 0.00 0.85 0.01 99 1001.2
20260507053033 32 289 15.6 22.6 0.00 0.85 0.01 99 1001.6
20260507051538 32 245 14.8 21.7 0.01 0.85 0.01 99 1001.9
20260507050039 33 329 13.0 21.7 0.01 0.85 0.01 99 1001.8
20260507044532 33 303 15.6 25.2 0.01 0.85 0.01 99 1001.8
20260507043030 34 330 13.0 20.9 0.02 0.85 0.01 99 1002.1
20260507041532 34 296 15.6 27.8 0.03 0.84 0.00 99 1002.5
20260507040033 34 245 19.1 26.9 0.03 0.84 0.00 99 1002.7
20260507034550 34 245 14.8 25.2 0.06 0.84 0.84 99 1002.9
20260507033036 35 321 18.2 26.1 0.06 0.83 0.83 99 1003.0
20260507031531 35 245 16.5 24.3 0.06 0.81 0.81 99 1003.0
20260507030030 35 245 14.8 22.6 0.09 0.81 0.81 99 1003.1
20260507024546 36 262 15.6 21.7 0.10 0.78 0.78 99 1003.3
20260507023029 37 245 11.3 15.6 0.10 0.77 0.77 99 1003.2
20260507021537 38 245 7.8 13.0 0.08 0.75 0.75 99 1003.4
20260507020033 40 245 10.4 14.8 0.04 0.71 0.71 99 1003.6
20260507014540 40 245 6.1 13.0 0.01 0.68 0.68 99 1003.6
20260507013034 41 245 6.1 10.4 0.01 0.67 0.67 99 1003.6
20260507011539 42 245 7.0 10.4 0.01 0.67 0.67 99 1003.9
20260507010034 42 285 7.0 12.2 0.02 0.67 0.67 99 1004.1
20260507004531 42 245 7.8 11.3 0.02 0.67 0.67 99 1004.3
20260507003032 42 245 3.5 7.8 0.05 0.66 0.66 99 1004.4
20260507001535 43 245 5.2 8.7 0.08 0.66 0.66 99 1004.4
20260507000032 42 286 6.1 10.4 0.12 0.65 0.65 99 1004.3
20260506234533 42 302 7.8 14.8 0.13 0.65 0.65 99 1004.5
20260506233032 42 282 9.6 14.8 0.10 0.61 0.61 99 1004.5
20260506231537 46 245 2.6 7.8 0.06 0.57 0.57 99 1004.2
20260506230032 47 245 2.6 11.3 0.03 0.52 0.52 100 1004.3
20260506224530 47 144 11.3 17.4 0.03 0.52 0.52 100 1004.0
20260506223031 47 142 12.2 17.4 0.02 0.52 0.51 99 1003.8
20260506221530 46 141 10.4 15.6 0.03 0.52 0.51 99 1004.2
20260506220034 46 245 13.9 18.2 0.02 0.51 0.50 99 1004.5
20260506214531 46 245 10.4 17.4 0.01 0.58 0.49 99 1004.8
20260506213032 46 245 11.3 16.5 0.03 0.58 0.49 99 1004.9
20260506211534 46 245 12.2 19.1 0.03 0.57 0.48 99 1004.9
20260506210031 46 148 8.7 14.8 0.04 0.57 0.48 99 1004.8
20260506204532 46 245 13.0 18.2 0.03 0.56 0.47 99 1004.9
20260506203029 46 245 11.3 14.8 0.04 0.55 0.46 99 1004.9
20260506201531 46 245 10.4 16.5 0.04 0.54 0.45 99 1004.9
20260506200033 46 174 9.6 16.5 0.05 0.52 0.44 99 1005.2
20260506194536 46 245 10.4 15.6 0.07 0.52 0.44 99 1005.2
20260506193033 46 177 9.6 16.5 0.07 0.51 0.42 99 1005.6
20260506191534 46 175 12.2 18.2 0.11 0.50 0.41 99 1005.7
20260506190032 46 245 15.6 21.7 0.12 0.48 0.39 99 1005.8
20260506184533 46 245 12.2 21.7 0.14 0.46 0.37 99 1005.8
20260506183030 45 144 9.6 13.9 0.17 0.44 0.35 99 1006.0
20260506181534 45 136 9.6 13.9 0.16 0.39 0.30 99 1005.7
20260506180032 45 129 9.6 13.0 0.13 0.36 0.27 99 1005.9
20260506174531 44 129 9.6 13.9 0.10 0.32 0.23 99 1006.0
20260506173030 44 125 9.6 15.6 0.06 0.27 0.18 99 1006.2
20260506171532 45 245 9.6 15.6 0.03 0.23 0.14 99 1006.1
20260506170030 45 137 10.4 16.5 0.04 0.23 0.14 99 1006.5
20260506164532 44 115 10.4 16.5 0.04 0.22 0.13 99 1006.7
20260506163032 45 140 12.2 18.2 0.03 0.21 0.12 99 1007.1
20260506161530 45 148 12.2 20.0 0.01 0.19 0.10 99 1007.4
20260506160033 45 118 12.2 19.1 0.01 0.19 0.10 99 1007.5
20260506154533 45 138 12.2 18.2 0.00 0.18 0.09 99 1007.6
20260506153041 45 127 13.0 18.2 0.00 0.18 0.09 99 1007.7
20260506151531 45 124 13.9 18.2 0.01 0.18 0.09 99 1007.6
20260506150030 45 133 13.9 18.2 0.03 0.18 0.09 99 1007.5
20260506144550 43 123 13.9 18.2 0.04 0.18 0.09 99 1007.5
20260506143031 43 114 13.0 17.4 0.05 0.18 0.09 99 1007.5
20260506141533 43 104 14.8 20.0 0.04 0.17 0.08 99 1008.0
20260506140050 43 94 12.2 19.1 0.02 0.15 0.06 99 1008.2
20260506134534 42 119 13.0 19.1 0.01 0.14 0.05 99 1007.7
20260506133032 42 150 13.0 19.1 0.00 0.13 0.04 99 1007.5
20260506131542 42 112 12.2 19.1 0.00 0.13 0.04 99 1007.9
20260506130034 42 113 13.0 19.1 0.00 0.13 0.04 99 1008.0
20260506124533 41 124 13.9 19.1 0.00 0.13 0.04 98 1008.2
20260506123039 42 144 13.0 18.2 0.00 0.13 0.04 98 1008.0
20260506121530 42 119 12.2 17.4 0.00 0.13 0.04 98 1008.2
20260506120033 42 119 8.7 13.9 0.00 0.13 0.04 98 1008.5
20260506114531 43 106 7.0 10.4 0.00 0.13 0.04 97 1008.6
20260506113037 43 142 7.0 11.3 0.00 0.13 0.04 96 1008.6
20260506111533 44 245 8.7 12.2 0.00 0.13 0.04 96 1008.5
20260506110040 44 155 8.7 13.9 0.00 0.13 0.04 95 1008.5
20260506104530 43 245 8.7 11.3 0.00 0.13 0.04 95 1008.5
20260506103033 43 245 5.2 13.0 0.00 0.13 0.04 95 1008.8
20260506101534 42 213 7.0 12.2 0.00 0.13 0.04 98 1008.6
20260506100037 42 237 8.7 13.9 0.00 0.13 0.04 98 1008.6
20260506094534 42 245 7.0 16.5 0.00 0.13 0.04 99 1008.7
20260506093035 41 245 9.6 15.6 0.00 0.13 0.04 99 1008.5
20260506091532 41 245 11.3 14.8 0.00 0.13 0.04 99 1008.7
20260506090037 41 245 8.7 12.2 0.00 0.13 0.04 99 1008.2
20260506084537 41 245 12.2 17.4 0.00 0.13 0.04 99 1008.1
20260506083034 41 287 11.3 16.5 0.00 0.13 0.04 99 1008.6